Location: *
(47.6569°N, 7.4256°E)
Time: 09:38:59
(UTC+00:00)

YAOGAN 6 - Pass Details

Date: 14 December 2019
Orbit: 466 x 505 km, 97.0° (Epoch: 27 January)

Event Time Altitude Azimuth Distance (km) Brightness Sun altitude
Rises 17:35:51 0° 169° (SSE) 2,521 6.2 -18.7°
Reaches altitude 10° 17:37:53 10° 170° (S) 1,654 5.3 -19.1°
Maximum altitude 17:41:27 81° 258° (WSW) 498 2.6 -19.6°
Drops below altitude 10° 17:45:06 10° 346° (NNW) 1,692 5.3 -20.2°
Sets 17:47:12 0° 347° (NNW) 2,586 6.3 -20.6°
